When you browse on this site, cookies collect data to enhance your experience and personalize the content and advertising you see.
Visit our Privacy Policy to learn more. By continuing to use the site, you agree to this use of cookies and data.
  • In Hungary
  • List of Countries
  • For 7 days
  • Water Temperature
  • Satellite Maps
  • Weather Map
  • News
  • Weather Widgets
  • user-avatar
    Login

    Hourly Weather Shtip

    Today, 18 November, Sunday

    Time Temperature Precipitation Wind Pressure Humidity
    00:00 +4°C° 0.1 mm 1 mps 734 mmHg 68%
    01:00 +4°C° 0 mm 1 mps 734 mmHg 69%
    02:00 +4°C° 0.1 mm 1 mps 733 mmHg 70%
    03:00 +4°C° 0.1 mm 1 mps 733 mmHg 71%
    04:00 +4°C° 0.1 mm 1 mps 733 mmHg 72%
    05:00 +4°C° 0.2 mm 1 mps 732 mmHg 73%
    06:00 +4°C° 0.2 mm 1 mps 732 mmHg 73%
    07:00 +5°C° 0 mm 1 mps 732 mmHg 74%
    08:00 +6°C° 0.3 mm 1 mps 732 mmHg 72%
    09:00 +7°C° 0.3 mm 1 mps 731 mmHg 70%
    10:00 +7°C° 0.3 mm 1 mps 731 mmHg 68%
    11:00 +8°C° 0.8 mm 1 mps 730 mmHg 69%
    12:00 +8°C° 0.8 mm 1 mps 729 mmHg 71%
    13:00 +8°C° 0.8 mm 1 mps 729 mmHg 72%
    14:00 +7°C° 1.4 mm 1 mps 728 mmHg 76%
    15:00 +7°C° 1.4 mm 1 mps 727 mmHg 80%
    16:00 +7°C° 1.4 mm 1 mps 727 mmHg 84%
    17:00 +6°C° 1.6 mm 1 mps 726 mmHg 85%
    18:00 +6°C° 1.6 mm 1 mps 726 mmHg 85%
    19:00 +6°C° 1.6 mm 1 mps 725 mmHg 86%
    20:00 +6°C° 1.2 mm 1 mps 725 mmHg 87%
    21:00 +6°C° 1.2 mm 1 mps 725 mmHg 87%
    22:00 +6°C° 1.2 mm 1 mps 724 mmHg 88%
    23:00 +6°C° 0.5 mm 1 mps 724 mmHg 87%

    Tomorrow, 19 November, Monday

    Time Temperature Precipitation Wind Pressure Humidity
    00:00 +6°C° 0.5 mm 1 mps 724 mmHg 87%
    01:00 +6°C° 0.5 mm 1 mps 724 mmHg 87%
    02:00 +5°C° 0 mm 1 mps 724 mmHg 87%
    03:00 +5°C° 0 mm 1 mps 724 mmHg 87%
    04:00 +4°C° 0 mm 1 mps 724 mmHg 87%
    05:00 +4°C° 0 mm 1 mps 724 mmHg 87%
    06:00 +4°C° 0 mm 1 mps 724 mmHg 86%
    07:00 +3°C° 0 mm 1 mps 725 mmHg 86%
    08:00 +5°C° 0 mm 1 mps 725 mmHg 81%
    09:00 +6°C° 0 mm 1 mps 725 mmHg 77%
    10:00 +8°C° 0 mm 1 mps 726 mmHg 73%
    11:00 +9°C° 0 mm 1 mps 726 mmHg 70%
    12:00 +10°C° 0 mm 1 mps 726 mmHg 67%
    13:00 +10°C° 0 mm 1 mps 726 mmHg 64%
    14:00 +10°C° 0 mm 1 mps 726 mmHg 67%
    15:00 +9°C° 0 mm 1 mps 726 mmHg 69%
    16:00 +8°C° 0 mm 1 mps 727 mmHg 72%
    17:00 +8°C° 0 mm 1 mps 727 mmHg 73%
    18:00 +7°C° 0 mm 1 mps 727 mmHg 74%
    19:00 +7°C° 0 mm 1 mps 728 mmHg 75%
    20:00 +7°C° 0 mm 1 mps 728 mmHg 74%
    21:00 +7°C° 0 mm 1 mps 728 mmHg 74%
    22:00 +7°C° 0 mm 1 mps 728 mmHg 73%
    23:00 +7°C° 0.6 mm 1 mps 728 mmHg 76%

    Day after tomorrow, 20 November, Tuesday

    Time Temperature Precipitation Wind Pressure Humidity
    00:00 +7°C° 0.6 mm 1 mps 728 mmHg 79%
    01:00 +8°C° 0.6 mm 1 mps 728 mmHg 82%
    02:00 +7°C° 0.3 mm 2 mps 728 mmHg 83%
    03:00 +7°C° 0.3 mm 2 mps 728 mmHg 83%
    04:00 +7°C° 0.3 mm 2 mps 728 mmHg 84%
    05:00 +7°C° 0.1 mm 2 mps 728 mmHg 85%
    06:00 +7°C° 0.1 mm 2 mps 728 mmHg 86%
    07:00 +7°C° 0.1 mm 2 mps 728 mmHg 86%
    08:00 +8°C° 0.1 mm 3 mps 728 mmHg 85%
    09:00 +9°C° 0.1 mm 3 mps 728 mmHg 84%
    10:00 +10°C° 0.1 mm 4 mps 728 mmHg 83%
    11:00 +11°C° 0.1 mm 4 mps 728 mmHg 82%
    12:00 +11°C° 0.1 mm 4 mps 727 mmHg 81%
    13:00 +12°C° 0.1 mm 4 mps 727 mmHg 81%
    14:00 +11°C° 0.1 mm 3 mps 727 mmHg 83%
    15:00 +11°C° 0.1 mm 3 mps 727 mmHg 86%
    16:00 +11°C° 0.1 mm 3 mps 727 mmHg 89%
    17:00 +10°C° 0.2 mm 2 mps 727 mmHg 90%
    18:00 +10°C° 0.2 mm 2 mps 727 mmHg 91%
    19:00 +10°C° 0.2 mm 2 mps 727 mmHg 92%
    20:00 +10°C° 0.2 mm 2 mps 727 mmHg 92%
    21:00 +10°C° 0.2 mm 2 mps 727 mmHg 93%
    22:00 +10°C° 0.2 mm 2 mps 727 mmHg 93%
    23:00 +11°C° 1.1 mm 1 mps 726 mmHg 93%

    21 November, Wednesday

    Time Temperature Precipitation Wind Pressure Humidity
    00:00 +11°C° 1.1 mm 1 mps 726 mmHg 93%
    01:00 +11°C° 1.1 mm 1 mps 726 mmHg 94%
    02:00 +11°C° 0.4 mm 1 mps 725 mmHg 93%
    03:00 +11°C° 0.4 mm 1 mps 725 mmHg 93%
    04:00 +11°C° 0.4 mm 1 mps 724 mmHg 93%
    05:00 +11°C° 0.7 mm 1 mps 724 mmHg 93%
    06:00 +11°C° 0.7 mm 1 mps 724 mmHg 92%
    07:00 +11°C° 0.7 mm 1 mps 724 mmHg 91%
    08:00 +12°C° 0.4 mm 1 mps 724 mmHg 89%
    09:00 +12°C° 0.4 mm 1 mps 724 mmHg 86%
    10:00 +13°C° 0.4 mm 1 mps 724 mmHg 84%
    11:00 +13°C° 0.2 mm 1 mps 724 mmHg 82%
    12:00 +13°C° 0.2 mm 1 mps 724 mmHg 80%
    13:00 +14°C° 0.2 mm 1 mps 724 mmHg 79%
    14:00 +13°C° 0.2 mm 1 mps 724 mmHg 81%
    15:00 +13°C° 0.2 mm 1 mps 725 mmHg 83%
    16:00 +12°C° 0.2 mm 1 mps 725 mmHg 86%
    17:00 +12°C° 0.3 mm 2 mps 725 mmHg 87%
    18:00 +10°C° 0.3 mm 2 mps 726 mmHg 88%
    19:00 +10°C° 0.3 mm 2 mps 726 mmHg 89%
    20:00 +9°C° 0.1 mm 2 mps 727 mmHg 89%
    21:00 +9°C° 0.1 mm 2 mps 727 mmHg 89%
    22:00 +9°C° 0.1 mm 2 mps 727 mmHg 89%
    23:00 +8°C° 0 mm 2 mps 728 mmHg 90%

    22 November, Thursday

    Time Temperature Precipitation Wind Pressure Humidity
    00:00 +8°C° 0 mm 2 mps 728 mmHg 90%
    01:00 +8°C° 0 mm 2 mps 728 mmHg 90%
    02:00 +8°C° 0 mm 2 mps 728 mmHg 90%
    03:00 +7°C° 0 mm 2 mps 728 mmHg 89%
    04:00 +7°C° 0 mm 2 mps 728 mmHg 89%
    05:00 +7°C° 0 mm 2 mps 728 mmHg 89%
    06:00 +7°C° 0 mm 2 mps 729 mmHg 88%
    07:00 +8°C° 0 mm 1 mps 729 mmHg 88%
    08:00 +8°C° 0.1 mm 2 mps 729 mmHg 82%
    09:00 +9°C° 0.1 mm 2 mps 730 mmHg 76%
    10:00 +12°C° 0.1 mm 2 mps 730 mmHg 71%
    11:00 +12°C° 0.1 mm 2 mps 730 mmHg 69%
    12:00 +13°C° 0.1 mm 2 mps 730 mmHg 67%
    13:00 +13°C° 0.1 mm 2 mps 730 mmHg 65%
    14:00 +12°C° 0.1 mm 2 mps 730 mmHg 68%
    15:00 +12°C° 0.1 mm 1 mps 730 mmHg 72%
    16:00 +11°C° 0.1 mm 1 mps 730 mmHg 75%
    17:00 +11°C° 0 mm 1 mps 731 mmHg 77%
    18:00 +10°C° 0 mm 1 mps 731 mmHg 79%
    19:00 +9°C° 0 mm 1 mps 732 mmHg 81%
    20:00 +9°C° 0.1 mm 1 mps 732 mmHg 82%
    21:00 +9°C° 0.1 mm 1 mps 732 mmHg 83%
    22:00 +9°C° 0.1 mm 1 mps 733 mmHg 83%
    23:00 +8°C° 0 mm 1 mps 733 mmHg 84%

    23 November, Friday

    Time Temperature Precipitation Wind Pressure Humidity
    00:00 +8°C° 0 mm 1 mps 733 mmHg 85%
    01:00 +8°C° 0 mm 1 mps 733 mmHg 85%
    02:00 +8°C° 0 mm 1 mps 733 mmHg 86%
    03:00 +7°C° 0 mm 1 mps 734 mmHg 86%
    04:00 +7°C° 0 mm 1 mps 734 mmHg 86%
    05:00 +7°C° 0 mm 1 mps 734 mmHg 86%
    06:00 +7°C° 0 mm 1 mps 735 mmHg 85%
    07:00 +7°C° 0 mm 1 mps 735 mmHg 85%
    08:00 +8°C° 0 mm 1 mps 735 mmHg 78%
    09:00 +10°C° 0 mm 1 mps 736 mmHg 71%
    10:00 +11°C° 0 mm 1 mps 736 mmHg 64%
    11:00 +12°C° 0 mm 1 mps 736 mmHg 61%
    12:00 +13°C° 0 mm 1 mps 736 mmHg 59%
    13:00 +13°C° 0 mm 1 mps 735 mmHg 56%
    14:00 +12°C° 0 mm 1 mps 735 mmHg 60%
    15:00 +11°C° 0 mm 1 mps 735 mmHg 64%
    16:00 +11°C° 0 mm 1 mps 735 mmHg 68%
    17:00 +10°C° 0 mm 1 mps 736 mmHg 71%
    18:00 +9°C° 0 mm 1 mps 736 mmHg 74%
    19:00 +8°C° 0 mm 1 mps 736 mmHg 76%
    20:00 +8°C° 0 mm 1 mps 736 mmHg 78%
    21:00 +8°C° 0 mm 1 mps 736 mmHg 80%
    22:00 +7°C° 0 mm 1 mps 736 mmHg 81%
    23:00 +7°C° 0 mm 1 mps 736 mmHg 82%
    Show more